Location: Unspecified
(43.3830°N, 0.0000°E)
Time: 12:33:35
(UTC+00:00)

Vanguard 2 Rocket - Visible Passes

Search period start: 25 June 2019 00:00
Search period end: 05 July 2019 00:00
Orbit: 555 x 3326 km, 32.9° (Epoch: 25 June)

Date Brightness Start Highest point End Pass type
(mag) Time Alt. Az. Time Alt. Az. Time Alt. Az.
25 Jun 9.2 01:08:28 10° W 01:19:57 44° SSW 01:37:06 10° SE visible
25 Jun 10.0 03:23:58 10° W 03:35:45 25° SW 03:50:03 10° SSE visible
25 Jun 8.3 21:56:56 10° WSW 22:04:31 47° S 22:17:34 10° ESE visible
26 Jun 8.9 00:09:01 10° W 00:19:07 47° S 00:35:23 10° SE visible
26 Jun 9.7 02:23:07 10° W 02:34:45 31° SSW 02:50:14 10° SSE visible
26 Jun 8.2 20:58:26 10° SW 21:04:47 39° SSE 21:15:25 10° E visible
26 Jun 8.6 23:09:54 10° WSW 23:18:37 48° S 23:33:23 10° ESE visible
27 Jun 9.3 01:23:01 10° W 01:33:49 36° SSW 01:49:33 10° SE visible
27 Jun 10.2 03:40:26 10° WSW 03:49:20 17° SW 03:59:40 10° S visible
27 Jun 8.3 22:11:02 10° WSW 22:18:28 46° S 22:31:18 10° ESE visible
28 Jun 9.0 00:23:25 10° W 00:33:05 40° SSW 00:48:17 10° SE visible
28 Jun 9.8 02:38:34 10° WSW 02:48:30 22° SSW 03:01:07 10° S visible
28 Jun 8.1 21:12:24 10° WSW 21:18:42 42° S 21:29:20 10° ESE visible
28 Jun 8.7 23:24:12 10° WSW 23:32:38 42° S 23:46:38 10° SE visible
29 Jun 9.5 01:37:57 10° WSW 01:47:42 27° SSW 02:01:15 10° SSE visible
29 Jun 8.0 20:14:01 10° SW 20:19:16 34° SSE 20:27:38 10° ESE visible
29 Jun 8.4 22:25:15 10° WSW 22:32:31 43° S 22:42:48 15° ESE visible
30 Jun 9.2 00:38:05 10° WSW 00:47:05 31° SSW 01:00:35 10° SSE visible
30 Jun 10.0 03:00:22 14° SW 03:02:18 14° SW 03:09:55 10° S visible
30 Jun 8.1 21:26:33 10° WSW 21:32:42 41° S 21:42:30 11° ESE visible
30 Jun 8.8 23:38:41 10° WSW 23:46:42 34° SSW 23:48:05 34° S visible
01 Jul 10.0 02:08:52 14° S 02:08:52 14° S 02:11:44 10° S visible
01 Jul 7.9 20:28:01 10° SW 20:33:13 36° S 20:41:35 10° ESE visible
01 Jul 8.5 22:39:38 10° WSW 22:46:36 36° S 22:50:02 30° SSE visible
02 Jul 9.6 00:53:16 10° WSW 01:15:37 - SSE 00:55:42 16° WSW visible
02 Jul 8.2 21:40:49 10° WSW 21:46:48 37° S 21:52:31 21° SE visible
02 Jul 9.1 23:53:31 10° WSW 23:58:13 24° SW 23:58:13 24° SW visible
03 Jul 7.9 20:42:11 10° WSW 20:47:17 35° S 20:55:17 10° ESE visible
03 Jul 8.7 22:54:14 10° WSW 23:00:44 29° SSW 23:00:59 29° SSW visible
04 Jul 8.4 21:55:17 10° WSW 22:00:56 30° S 22:03:56 25° SSE visible
